I1SXT-5 Weather Reports


time (UTC)temp
C
wind
direction
speed
KPH
gust
KPH
rain 1hr
cm
rain 24hr
cm
rain mn
cm
humidity
%
barometer
mb
20260507131326 -17 0.0 0.0 0.00 0.00 0.00 51 1013.8
20260507130323 -17 0.0 0.0 0.00 0.00 0.00 49 1013.8
20260507125822 -17 0.0 0.0 0.00 0.00 0.00 49 1013.7
20260507125321 -17 0.0 0.0 0.00 0.00 0.00 50 1013.7
20260507124820 -17 0.0 0.0 0.00 0.00 0.00 49 1013.8
20260507124318 -17 0.0 0.0 0.00 0.00 0.00 49 1013.7
20260507123817 -17 0.0 0.0 0.00 0.00 0.00 48 1013.8
20260507123316 -17 0.0 0.0 0.00 0.00 0.00 49 1013.7
20260507122815 -17 0.0 0.0 0.00 0.00 0.00 48 1013.6
20260507122314 -17 0.0 0.0 0.00 0.00 0.00 47 1013.6
20260507121812 -17 0.0 0.0 0.00 0.00 0.00 46 1013.5
20260507121311 -17 0.0 0.0 0.00 0.00 0.00 49 1013.5
20260507120810 -17 0.0 0.0 0.00 0.00 0.00 47 1013.6
20260507120309 -17 0.0 0.0 0.00 0.00 0.00 48 1013.6
20260507115807 -17 0.0 0.0 0.00 0.00 0.00 48 1013.6
20260507114805 -17 0.0 0.0 0.00 0.00 0.00 50 1013.7
20260507114304 -17 0.0 0.0 0.00 0.00 0.00 51 1013.9
20260507113802 -17 0.0 0.0 0.00 0.00 0.00 49 1013.9
20260507112259 -17 0.0 0.0 0.00 0.00 0.00 49 1013.9
20260507111757 -17 0.0 0.0 0.00 0.00 0.00 47 1014.0
20260507110755 -17 0.0 0.0 0.00 0.00 0.00 47 1013.8
20260507110254 -17 0.0 0.0 0.00 0.00 0.00 46 1013.8
20260507105753 -17 0.0 0.0 0.00 0.00 0.00 50 1013.8
20260507105252 -17 0.0 0.0 0.00 0.00 0.00 48 1013.7
20260507104249 -17 0.0 0.0 0.00 0.00 0.00 50 1013.8
20260507103748 -17 0.0 0.0 0.00 0.00 0.00 49 1013.8
20260507103246 -17 0.0 0.0 0.00 0.00 0.00 49 1013.8
20260507102745 -17 0.0 0.0 0.00 0.00 0.00 51 1013.9
20260507101242 -17 0.0 0.0 0.00 0.00 0.00 50 1013.9
20260507100740 -17 0.0 0.0 0.00 0.00 0.00 49 1013.8
20260507100239 -17 0.0 0.0 0.00 0.00 0.00 48 1013.9
20260507095738 -17 0.0 0.0 0.00 0.00 0.00 48 1014.0
20260507095237 -17 0.0 0.0 0.00 0.00 0.00 47 1013.8
20260507094736 -17 0.0 0.0 0.00 0.00 0.00 47 1013.8
20260507094234 -17 0.0 0.0 0.00 0.00 0.00 48 1013.8
20260507093733 -17 0.0 0.0 0.00 0.00 0.00 47 1013.9
20260507093232 -17 0.0 0.0 0.00 0.00 0.00 47 1013.9
20260507092730 -17 0.0 0.0 0.00 0.00 0.00 46 1013.9
20260507092229 -17 0.0 0.0 0.00 0.00 0.00 47 1013.9
20260507091728 -17 0.0 0.0 0.00 0.00 0.00 46 1013.9
20260507091227 -17 0.0 0.0 0.00 0.00 0.00 46 1013.9
20260507090725 -17 0.0 0.0 0.00 0.00 0.00 46 1013.8
20260507090224 -17 0.0 0.0 0.00 0.00 0.00 48 1013.8
20260507085723 -17 0.0 0.0 0.00 0.00 0.00 48 1013.8
20260507085222 -17 0.0 0.0 0.00 0.00 0.00 47 1013.8
20260507084219 -17 0.0 0.0 0.00 0.00 0.00 48 1013.6
20260507083718 -17 0.0 0.0 0.00 0.00 0.00 46 1013.5
20260507083217 -17 0.0 0.0 0.00 0.00 0.00 46 1013.5
20260507082716 -17 0.0 0.0 0.00 0.00 0.00 49 1013.5
20260507082215 -17 0.0 0.0 0.00 0.00 0.00 49 1013.4
20260507081713 -17 0.0 0.0 0.00 0.00 0.00 49 1013.4
20260507081212 -17 0.0 0.0 0.00 0.00 0.00 49 1013.4
20260507080711 -17 0.0 0.0 0.00 0.00 0.00 48 1013.4
20260507080210 -17 0.0 0.0 0.00 0.00 0.00 49 1013.4
20260507075709 -17 0.0 0.0 0.00 0.00 0.00 49 1013.3
20260507075207 -17 0.0 0.0 0.00 0.00 0.00 49 1013.3
20260507074706 -17 0.0 0.0 0.00 0.00 0.00 50 1013.3
20260507074205 -17 0.0 0.0 0.00 0.00 0.00 51 1013.4
20260507073704 -17 0.0 0.0 0.00 0.00 0.00 50 1013.3
20260507073202 -17 0.0 0.0 0.00 0.00 0.00 49 1013.3
20260507072701 -17 0.0 0.0 0.00 0.00 0.00 51 1013.2
20260507072200 -17 0.0 0.0 0.00 0.00 0.00 51 1013.2
20260507071658 -17 0.0 0.0 0.00 0.00 0.00 51 1013.2
20260507071157 -17 0.0 0.0 0.00 0.00 0.00 51 1013.2
20260507070656 -17 0.0 0.0 0.00 0.00 0.00 52 1013.2
20260507070155 -17 0.0 0.0 0.00 0.00 0.00 50 1013.2
20260507065654 -17 0.0 0.0 0.00 0.00 0.00 50 1013.2
20260507065152 -17 0.0 0.0 0.00 0.00 0.00 51 1013.1
20260507064651 -17 0.0 0.0 0.00 0.00 0.00 51 1013.1
20260507064150 -17 0.0 0.0 0.00 0.00 0.00 52 1013.1
20260507063649 -17 0.0 0.0 0.00 0.00 0.00 54 1013.0
20260507063148 -17 0.0 0.0 0.00 0.00 0.00 55 1013.0
20260507062646 -17 0.0 0.0 0.00 0.00 0.00 56 1013.0
20260507061644 -17 0.0 0.0 0.00 0.00 0.00 55 1012.9
20260507061143 -17 0.0 0.0 0.00 0.00 0.00 55 1012.9
20260507060641 -17 0.0 0.0 0.00 0.00 0.00 50 1012.8
20260507060140 -17 0.0 0.0 0.00 0.00 0.00 50 1012.8
20260507055639 -17 0.0 0.0 0.00 0.00 0.00 45 1012.8
20260507055137 -17 0.0 0.0 0.00 0.00 0.00 48 1012.9
20260507054636 -17 0.0 0.0 0.00 0.00 0.00 53 1012.9
20260507054135 -17 0.0 0.0 0.00 0.00 0.00 54 1012.8
20260507053634 -17 0.0 0.0 0.00 0.00 0.00 53 1012.7
20260507053133 -17 0.0 0.0 0.00 0.00 0.00 61 1012.7
20260507052631 -17 0.0 0.0 0.00 0.00 0.00 62 1012.6
20260507052130 -17 0.0 0.0 0.00 0.00 0.00 63 1012.6
20260507051629 -17 0.0 0.0 0.00 0.00 0.00 62 1012.6
20260507050627 -17 0.0 0.0 0.00 0.00 0.00 61 1012.6
20260507050125 -17 0.0 0.0 0.00 0.00 0.00 62 1012.4
20260507045624 -17 0.0 0.0 0.00 0.00 0.00 62 1012.5
20260507045123 -17 0.0 0.0 0.00 0.00 0.00 63 1012.4
20260507044621 -17 0.0 0.0 0.00 0.00 0.00 64 1012.4
20260507044120 -17 0.0 0.0 0.00 0.00 0.00 66 1012.3
20260507043619 -17 0.0 0.0 0.00 0.00 0.00 66 1012.3
20260507043118 -17 0.0 0.0 0.00 0.00 0.00 65 1012.3
20260507042617 -17 0.0 0.0 0.00 0.00 0.00 64 1012.3
20260507042115 -17 0.0 0.0 0.00 0.00 0.00 65 1012.3
20260507041113 -17 0.0 0.0 0.00 0.00 0.00 67 1012.3
20260507040612 -17 0.0 0.0 0.00 0.00 0.00 66 1012.2
20260507040110 -17 0.0 0.0 0.00 0.00 0.00 66 1012.1
20260507035609 -17 0.0 0.0 0.00 0.00 0.00 65 1012.1
20260507035108 -17 0.0 0.0 0.00 0.00 0.00 65 1012.2
20260507034607 -17 0.0 0.0 0.00 0.00 0.00 65 1012.1
20260507034106 -17 0.0 0.0 0.00 0.00 0.00 65 1012.2
20260507033604 -17 0.0 0.0 0.00 0.00 0.00 66 1012.1
20260507033103 -17 0.0 0.0 0.00 0.00 0.00 67 1012.2
20260507032602 -17 0.0 0.0 0.00 0.00 0.00 67 1012.1
20260507032101 -17 0.0 0.0 0.00 0.00 0.00 64 1012.1
20260507031559 -17 0.0 0.0 0.00 0.00 0.00 65 1012.1
20260507031058 -17 0.0 0.0 0.00 0.00 0.00 65 1012.1
20260507030557 -17 0.0 0.0 0.00 0.00 0.00 66 1012.1
20260507030056 -17 0.0 0.0 0.00 0.00 0.00 66 1012.1
20260507025554 -17 0.0 0.0 0.00 0.00 0.00 67 1012.1
20260507025053 -17 0.0 0.0 0.00 0.00 0.00 65 1012.1
20260507024051 -17 0.0 0.0 0.00 0.00 0.00 66 1012.1
20260507023550 -17 0.0 0.0 0.00 0.00 0.00 67 1012.2
20260507023048 -17 0.0 0.0 0.00 0.00 0.00 66 1012.1
20260507022046 -17 0.0 0.0 0.00 0.00 0.00 68 1012.1
20260507021043 -17 0.0 0.0 0.00 0.00 0.00 67 1012.1
20260507020542 -17 0.0 0.0 0.00 0.00 0.00 65 1012.1
20260507015039 -17 0.0 0.0 0.00 0.00 0.00 64 1012.2
20260507014537 -17 0.0 0.0 0.00 0.00 0.00 64 1012.1
20260507014036 -17 0.0 0.0 0.00 0.00 0.00 64 1012.1
20260507013535 -17 0.0 0.0 0.00 0.00 0.00 65 1012.1
20260507013034 -17 0.0 0.0 0.00 0.00 0.00 66 1012.1
20260507012532 -17 0.0 0.0 0.00 0.00 0.00 66 1012.1
20260507012032 -17 0.0 0.0 0.00 0.00 0.00 64 1012.1
20260507011530 -17 0.0 0.0 0.00 0.00 0.00 65 1012.1
20260507011029 -17 0.0 0.0 0.00 0.00 0.00 65 1012.1
20260507010527 -17 0.0 0.0 0.00 0.00 0.00 64 1012.1
20260507010026 -17 0.0 0.0 0.00 0.00 0.00 64 1012.2
20260507005525 -17 0.0 0.0 0.00 0.00 0.00 64 1012.3
20260507005024 -17 0.0 0.0 0.00 0.00 0.00 65 1012.3
20260507004523 -17 0.0 0.0 0.00 0.00 0.00 65 1012.3
20260507004021 -17 0.0 0.0 0.00 0.00 0.00 64 1012.3
20260507003520 -17 0.0 0.0 0.00 0.00 0.00 64 1012.2
20260507003019 -17 0.0 0.0 0.00 0.00 0.00 64 1012.2
20260507002517 -17 0.0 0.0 0.00 0.00 0.00 64 1012.2
20260507002016 -17 0.0 0.0 0.00 0.00 0.00 64 1012.2
20260507001515 -17 0.0 0.0 0.00 0.00 0.00 64 1012.2
20260507001014 -17 0.0 0.0 0.00 0.00 0.00 63 1012.2
20260507000513 -17 0.0 0.0 0.00 0.00 0.00 63 1012.2
20260507000011 -17 0.0 0.0 0.00 0.00 0.00 64 1012.2
20260506235510 -17 0.0 0.0 0.00 0.00 0.00 63 1012.3
20260506235009 -17 0.0 0.0 0.00 0.00 0.00 63 1012.3
20260506234508 -17 0.0 0.0 0.00 0.00 0.00 63 1012.3
20260506234006 -17 0.0 0.0 0.00 0.00 0.00 63 1012.4
20260506233505 -17 0.0 0.0 0.00 0.00 0.00 64 1012.4
20260506233004 -17 0.0 0.0 0.00 0.00 0.00 64 1012.4
20260506232503 -17 0.0 0.0 0.00 0.00 0.00 64 1012.4
20260506232002 -17 0.0 0.0 0.00 0.00 0.00 65 1012.4
20260506231500 -17 0.0 0.0 0.00 0.00 0.00 67 1012.4
20260506230959 -17 0.0 0.0 0.00 0.00 0.00 65 1012.4
20260506230458 -17 0.0 0.0 0.00 0.00 0.00 63 1012.4
20260506225957 -17 0.0 0.0 0.00 0.00 0.00 63 1012.4
20260506225455 -17 0.0 0.0 0.00 0.00 0.00 63 1012.4
20260506224954 -17 0.0 0.0 0.00 0.00 0.00 62 1012.3
20260506224453 -17 0.0 0.0 0.00 0.00 0.00 63 1012.4
20260506223952 -17 0.0 0.0 0.00 0.00 0.00 64 1012.3
20260506223451 -17 0.0 0.0 0.00 0.00 0.00 64 1012.3
20260506222949 -17 0.0 0.0 0.00 0.00 0.00 61 1012.3
20260506222448 -17 0.0 0.0 0.00 0.00 0.00 61 1012.3
20260506221947 -17 0.0 0.0 0.00 0.00 0.00 61 1012.3
20260506221446 -17 0.0 0.0 0.00 0.00 0.00 62 1012.3
20260506220944 -17 0.0 0.0 0.00 0.00 0.00 63 1012.3
20260506220443 -17 0.0 0.0 0.00 0.00 0.00 62 1012.4
20260506215942 -17 0.0 0.0 0.00 0.00 0.00 61 1012.3
20260506215441 -17 0.0 0.0 0.00 0.00 0.00 61 1012.3
20260506214939 -17 0.0 0.0 0.00 0.00 0.00 62 1012.4
20260506214438 -17 0.0 0.0 0.00 0.00 0.00 62 1012.4
20260506213436 -17 0.0 0.0 0.00 0.00 0.00 61 1012.3
20260506212934 -17 0.0 0.0 0.00 0.00 0.00 62 1012.3
20260506212433 -17 0.0 0.0 0.00 0.00 0.00 63 1012.3
20260506211932 -17 0.0 0.0 0.00 0.00 0.00 64 1012.3
20260506211431 -17 0.0 0.0 0.00 0.00 0.00 63 1012.2
20260506210930 -17 0.0 0.0 0.00 0.00 0.00 63 1012.1
20260506210428 -17 0.0 0.0 0.00 0.00 0.00 61 1012.1
20260506205927 -17 0.0 0.0 0.00 0.00 0.00 61 1012.1
20260506205426 -17 0.0 0.0 0.00 0.00 0.00 63 1012.1
20260506204925 -17 0.0 0.0 0.00 0.00 0.00 63 1012.2
20260506204423 -17 0.0 0.0 0.00 0.00 0.00 63 1012.2
20260506203922 -17 0.0 0.0 0.00 0.00 0.00 63 1012.1
20260506203421 -17 0.0 0.0 0.00 0.00 0.00 60 1012.0
20260506202418 -17 0.0 0.0 0.00 0.00 0.00 59 1012.0
20260506201917 -17 0.0 0.0 0.00 0.00 0.00 60 1012.0
20260506201416 -17 0.0 0.0 0.00 0.00 0.00 60 1011.9
20260506200915 -17 0.0 0.0 0.00 0.00 0.00 60 1011.8
20260506200413 -17 0.0 0.0 0.00 0.00 0.00 60 1011.8
20260506195912 -17 0.0 0.0 0.00 0.00 0.00 61 1011.7
20260506195411 -17 0.0 0.0 0.00 0.00 0.00 60 1011.7
20260506194910 -17 0.0 0.0 0.00 0.00 0.00 60 1011.6
20260506194408 -17 0.0 0.0 0.00 0.00 0.00 58 1011.5
20260506193907 -17 0.0 0.0 0.00 0.00 0.00 57 1011.3
20260506193406 -17 0.0 0.0 0.00 0.00 0.00 55 1011.3
20260506192905 -17 0.0 0.0 0.00 0.00 0.00 55 1011.2
20260506192404 -17 0.0 0.0 0.00 0.00 0.00 55 1011.2
20260506191902 -17 0.0 0.0 0.00 0.00 0.00 55 1011.1
20260506191401 -17 0.0 0.0 0.00 0.00 0.00 55 1011.1
20260506190900 -17 0.0 0.0 0.00 0.00 0.00 55 1011.0
20260506190359 -17 0.0 0.0 0.00 0.00 0.00 55 1010.9
20260506185858 -17 0.0 0.0 0.00 0.00 0.00 55 1010.8
20260506185356 -17 0.0 0.0 0.00 0.00 0.00 55 1010.8
20260506184855 -17 0.0 0.0 0.00 0.00 0.00 55 1010.8
20260506184354 -17 0.0 0.0 0.00 0.00 0.00 54 1010.7
20260506183853 -17 0.0 0.0 0.00 0.00 0.00 54 1010.7
20260506183351 -17 0.0 0.0 0.00 0.00 0.00 54 1010.6
20260506182850 -17 0.0 0.0 0.00 0.00 0.00 53 1010.6
20260506182349 -17 0.0 0.0 0.00 0.00 0.00 53 1010.5
20260506181848 -17 0.0 0.0 0.00 0.00 0.00 53 1010.4
20260506180845 -17 0.0 0.0 0.00 0.00 0.00 52 1010.3
20260506180344 -17 0.0 0.0 0.00 0.00 0.00 52 1010.3
20260506175342 -17 0.0 0.0 0.00 0.00 0.00 52 1010.2
20260506174339 -17 0.0 0.0 0.00 0.00 0.00 52 1010.1
20260506173838 -17 0.0 0.0 0.00 0.00 0.00 53 1010.1
20260506173337 -17 0.0 0.0 0.00 0.00 0.00 52 1010.0
20260506172835 -17 0.0 0.0 0.00 0.00 0.00 50 1010.0
20260506172334 -17 0.0 0.0 0.00 0.00 0.00 51 1010.0
20260506171833 -17 0.0 0.0 0.00 0.00 0.00 49 1009.9
20260506171332 -17 0.0 0.0 0.00 0.00 0.00 51 1009.9
20260506165828 -17 0.0 0.0 0.00 0.00 0.00 50 1009.8
20260506165327 -17 0.0 0.0 0.00 0.00 0.00 50 1009.8
20260506164825 -17 0.0 0.0 0.00 0.00 0.00 51 1009.8
20260506164324 -17 0.0 0.0 0.00 0.00 0.00 51 1009.8
20260506163823 -17 0.0 0.0 0.00 0.00 0.00 52 1009.8
20260506163322 -17 0.0 0.0 0.00 0.00 0.00 51 1009.8
20260506162821 -17 0.0 0.0 0.00 0.00 0.00 51 1009.9
20260506162320 -17 0.0 0.0 0.00 0.00 0.00 51 1009.9
20260506161818 -17 0.0 0.0 0.00 0.00 0.00 51 1009.8
20260506161317 -17 0.0 0.0 0.00 0.00 0.00 52 1009.8
20260506160816 -17 0.0 0.0 0.00 0.00 0.00 53 1009.8
20260506160315 -17 0.0 0.0 0.00 0.00 0.00 56 1009.8
20260506155813 -17 0.0 0.0 0.00 0.00 0.00 55 1009.8
20260506155312 -17 0.0 0.0 0.00 0.00 0.00 54 1009.8
20260506154811 -17 0.0 0.0 0.00 0.00 0.00 54 1009.8
20260506154309 -17 0.0 0.0 0.00 0.00 0.00 54 1009.7
20260506153808 -17 0.0 0.0 0.00 0.00 0.00 54 1009.8
20260506153307 -17 0.0 0.0 0.00 0.00 0.00 54 1009.7
20260506152806 -17 0.0 0.0 0.00 0.00 0.00 54 1009.7
20260506152306 -17 0.0 0.0 0.00 0.00 0.00 54 1009.6
20260506151803 -17 0.0 0.0 0.00 0.00 0.00 53 1009.5
20260506151302 -17 0.0 0.0 0.00 0.00 0.00 54 1009.5
20260506150801 -17 0.0 0.0 0.00 0.00 0.00 50 1009.6
20260506150304 -17 0.0 0.0 0.00 0.00 0.00 49 1009.6
20260506145758 -17 0.0 0.0 0.00 0.00 0.00 51 1009.6
20260506145257 -17 0.0 0.0 0.00 0.00 0.00 51 1009.6
20260506144756 -17 0.0 0.0 0.00 0.00 0.00 54 1009.6
20260506144255 -17 0.0 0.0 0.00 0.00 0.00 52 1009.6
20260506143753 -17 0.0 0.0 0.00 0.00 0.00 52 1009.5
20260506143252 -17 0.0 0.0 0.00 0.00 0.00 53 1009.5
20260506141748 -17 0.0 0.0 0.00 0.00 0.00 51 1009.4
20260506141247 -17 0.0 0.0 0.00 0.00 0.00 52 1009.4
20260506140746 -17 0.0 0.0 0.00 0.00 0.00 53 1009.4
20260506140245 -17 0.0 0.0 0.00 0.00 0.00 53 1009.5
20260506135743 -17 0.0 0.0 0.00 0.00 0.00 51 1009.4
20260506135243 -17 0.0 0.0 0.00 0.00 0.00 52 1009.4
20260506134741 -17 0.0 0.0 0.00 0.00 0.00 52 1009.5
20260506134240 -17 0.0 0.0 0.00 0.00 0.00 53 1009.6
20260506133739 -17 0.0 0.0 0.00 0.00 0.00 55 1009.6
20260506133238 -17 0.0 0.0 0.00 0.00 0.00 54 1009.7
20260506132736 -17 0.0 0.0 0.00 0.00 0.00 56 1009.7
20260506132235 -17 0.0 0.0 0.00 0.00 0.00 56 1009.8
20260506131734 -17 0.0 0.0 0.00 0.00 0.00 57 1009.8